Time,TemperatureF,DewpointF,PressureIn,WindDirection,WindDirectionDegrees,WindSpeedMPH,WindSpeedGustMPH,Humidity,HourlyPrecipIn,Conditions,Clouds,dailyrainin,SoftwareType,DateUTC
2013-10-20 00:01:00,43.7,42.1,29.72,NNW,347,0.0,0.0,94,0.14,,,0.00,WeatherDisplay:10.37,2013-10-20 08:01:00,
2013-10-20 00:06:00,43.8,42.2,29.72,NNW,347,0.0,0.0,94,0.12,RA,,0.00,WeatherDisplay:10.37,2013-10-20 08:06:00,
2013-10-20 00:11:00,43.9,42.3,29.73,NNW,347,0.0,0.0,94,0.10,CLR,,0.00,WeatherDisplay:10.37,2013-10-20 08:11:00,
2013-10-20 00:16:00,44.0,42.4,29.73,NNW,347,0.0,0.0,94,0.09,CLR,,0.00,WeatherDisplay:10.37,2013-10-20 08:16:00,
2013-10-20 00:21:00,44.0,42.4,29.73,NNW,347,0.0,0.0,94,0.09,CLR,,0.00,WeatherDisplay:10.37,2013-10-20 08:21:00,
2013-10-20 00:26:00,44.0,42.4,29.73,NNW,347,0.0,0.0,94,0.09,CLR,,0.00,WeatherDisplay:10.37,2013-10-20 08:26:00,
2013-10-20 00:31:00,44.0,42.4,29.74,NNW,347,0.0,0.0,94,0.08,CLR,,0.00,WeatherDisplay:10.37,2013-10-20 08:31:00,
2013-10-20 00:36:00,44.0,42.4,29.74,NNW,347,0.0,0.0,94,0.08,CLR,,0.00,WeatherDisplay:10.37,2013-10-20 08:36:00,
2013-10-20 00:41:00,44.0,42.4,29.74,NNW,347,0.0,0.0,94,0.07,CLR,,0.00,WeatherDisplay:10.37,2013-10-20 08:41:00,
2013-10-20 00:46:00,44.0,42.1,29.74,NNW,347,0.0,0.0,93,0.05,CLR,,0.00,WeatherDisplay:10.37,2013-10-20 08:46:00,
2013-10-20 00:51:00,44.1,42.2,29.74,NNW,347,0.0,0.0,93,0.01,CLR,,0.00,WeatherDisplay:10.37,2013-10-20 08:51:00,
2013-10-20 00:56:00,44.1,42.2,29.75,NNW,347,0.0,0.0,93,0.01,CLR,,0.00,WeatherDisplay:10.37,2013-10-20 08:56:00,
2013-10-20 01:01:00,44.1,42.2,29.75,NNW,347,0.0,0.0,93,0.00,CLR,,0.00,WeatherDisplay:10.37,2013-10-20 09:01:00,
2013-10-20 01:06:00,44.1,42.2,29.75,NNW,347,0.0,0.0,93,0.00,CLR,,0.00,WeatherDisplay:10.37,2013-10-20 09:06:00,
2013-10-20 01:11:00,44.0,41.8,29.75,NNW,347,0.0,0.0,92,0.00,CLR,,0.00,WeatherDisplay:10.37,2013-10-20 09:11:00,
2013-10-20 01:16:00,44.1,41.9,29.75,NNW,347,0.0,0.0,92,0.00,CLR,,0.00,WeatherDisplay:10.37,2013-10-20 09:16:00,
2013-10-20 01:21:00,44.0,42.1,29.75,NNW,347,0.0,0.0,93,0.00,CLR,,0.00,WeatherDisplay:10.37,2013-10-20 09:21:00,
2013-10-20 01:26:00,43.9,42.0,29.76,NNW,347,0.0,0.0,93,0.01,RA,,0.01,WeatherDisplay:10.37,2013-10-20 09:26:00,
2013-10-20 01:31:00,43.8,41.9,29.76,NNW,347,0.0,0.0,93,0.01,RA,,0.01,WeatherDisplay:10.37,2013-10-20 09:31:00,
2013-10-20 01:36:00,43.8,41.9,29.75,NNW,347,0.0,0.0,93,0.01,CLR,,0.01,WeatherDisplay:10.37,2013-10-20 09:36:00,
2013-10-20 01:41:00,43.7,41.8,29.76,NNW,347,0.0,0.0,93,0.01,CLR,,0.01,WeatherDisplay:10.37,2013-10-20 09:41:00,
2013-10-20 01:46:00,43.7,41.8,29.76,NNW,347,0.0,0.0,93,0.01,CLR,,0.01,WeatherDisplay:10.37,2013-10-20 09:46:00,
2013-10-20 01:51:00,43.7,41.8,29.76,NNW,347,0.0,0.0,93,0.01,CLR,,0.01,WeatherDisplay:10.37,2013-10-20 09:51:00,
2013-10-20 01:56:00,43.7,41.8,29.76,NNW,347,0.0,0.0,93,0.01,CLR,,0.01,WeatherDisplay:10.37,2013-10-20 09:56:00,
2013-10-20 02:01:00,43.6,41.7,29.76,NNW,347,0.0,0.0,93,0.01,CLR,,0.01,WeatherDisplay:10.37,2013-10-20 10:01:00,
2013-10-20 02:06:00,43.6,41.4,29.76,NNW,347,0.0,0.0,92,0.01,CLR,,0.01,WeatherDisplay:10.37,2013-10-20 10:06:00,
2013-10-20 02:11:00,43.6,41.7,29.77,NNW,347,0.0,0.0,93,0.01,CLR,,0.01,WeatherDisplay:10.37,2013-10-20 10:11:00,
2013-10-20 02:16:00,43.6,41.7,29.77,NNW,347,0.0,0.0,93,0.01,CLR,,0.01,WeatherDisplay:10.37,2013-10-20 10:16:00,
2013-10-20 02:21:00,43.6,41.7,29.77,NNW,347,0.0,0.0,93,0.01,CLR,,0.01,WeatherDisplay:10.37,2013-10-20 10:21:00,
2013-10-20 02:26:00,43.6,41.7,29.77,NNW,347,0.0,0.0,93,0.00,CLR,,0.01,WeatherDisplay:10.37,2013-10-20 10:26:00,
2013-10-20 02:31:00,43.6,41.4,29.77,NNW,347,0.0,0.0,92,0.00,CLR,,0.01,WeatherDisplay:10.37,2013-10-20 10:31:00,
2013-10-20 02:36:00,43.6,41.4,29.78,NNW,347,0.0,0.0,92,0.00,CLR,,0.01,WeatherDisplay:10.37,2013-10-20 10:36:00,
2013-10-20 02:41:00,43.5,41.3,29.78,NNW,347,0.0,0.0,92,0.00,CLR,,0.01,WeatherDisplay:10.37,2013-10-20 10:41:00,
2013-10-20 02:46:00,43.5,41.3,29.78,NNW,347,0.0,0.0,92,0.00,CLR,,0.01,WeatherDisplay:10.37,2013-10-20 10:46:00,
2013-10-20 02:51:00,43.4,41.2,29.78,NNW,347,0.0,0.0,92,0.00,CLR,,0.01,WeatherDisplay:10.37,2013-10-20 10:51:00,
2013-10-20 02:56:00,43.3,41.1,29.78,NNW,347,0.0,0.0,92,0.00,CLR,,0.01,WeatherDisplay:10.37,2013-10-20 10:56:00,
2013-10-20 03:01:00,43.1,40.9,29.78,NNW,347,0.0,0.0,92,0.00,CLR,,0.01,WeatherDisplay:10.37,2013-10-20 11:01:00,
2013-10-20 03:06:00,43.1,40.7,29.79,NNW,347,0.0,0.0,91,0.00,CLR,,0.01,WeatherDisplay:10.37,2013-10-20 11:06:00,
2013-10-20 03:11:00,43.1,40.7,29.79,NNW,347,0.0,0.0,91,0.00,CLR,,0.01,WeatherDisplay:10.37,2013-10-20 11:11:00,
2013-10-20 03:16:00,43.1,40.7,29.79,NNW,347,0.0,0.0,91,0.00,CLR,,0.01,WeatherDisplay:10.37,2013-10-20 11:16:00,
2013-10-20 03:21:00,43.1,40.9,29.79,NNW,347,0.0,0.0,92,0.00,CLR,,0.01,WeatherDisplay:10.37,2013-10-20 11:21:00,
2013-10-20 03:26:00,43.1,40.9,29.79,NNW,347,0.0,0.0,92,0.00,CLR,,0.01,WeatherDisplay:10.37,2013-10-20 11:26:00,
2013-10-20 03:31:00,43.0,40.8,29.79,NNW,347,0.0,0.0,92,0.01,RA,,0.02,WeatherDisplay:10.37,2013-10-20 11:31:00,
2013-10-20 03:36:00,42.9,40.7,29.79,NNW,347,0.0,0.0,92,0.02,RA,,0.03,WeatherDisplay:10.37,2013-10-20 11:36:00,
2013-10-20 03:41:00,42.7,40.5,29.79,NNW,347,0.0,0.0,92,0.02,RA,,0.03,WeatherDisplay:10.37,2013-10-20 11:41:00,
2013-10-20 03:46:00,42.4,40.2,29.79,NNW,347,0.0,0.0,92,0.02,CLR,,0.03,WeatherDisplay:10.37,2013-10-20 11:46:00,
2013-10-20 03:51:00,42.3,40.4,29.79,NNW,347,0.0,0.0,93,0.02,CLR,,0.03,WeatherDisplay:10.37,2013-10-20 11:51:00,
2013-10-20 03:56:00,42.3,40.4,29.79,NNW,347,0.0,0.0,93,0.02,CLR,,0.03,WeatherDisplay:10.37,2013-10-20 11:56:00,
2013-10-20 04:01:00,42.3,40.4,29.79,NNW,347,0.0,0.0,93,0.02,CLR,,0.03,WeatherDisplay:10.37,2013-10-20 12:01:00,
2013-10-20 04:06:00,42.3,40.4,29.79,NNW,347,0.0,0.0,93,0.02,CLR,,0.03,WeatherDisplay:10.37,2013-10-20 12:06:00,
2013-10-20 04:11:00,42.2,40.3,29.79,NNW,347,0.0,0.0,93,0.02,CLR,,0.03,WeatherDisplay:10.37,2013-10-20 12:11:00,
2013-10-20 04:16:00,42.2,40.3,29.79,NNW,347,0.0,0.0,93,0.02,CLR,,0.03,WeatherDisplay:10.37,2013-10-20 12:16:00,
2013-10-20 04:21:00,42.2,40.3,29.79,NNW,347,0.0,0.0,93,0.02,CLR,,0.03,WeatherDisplay:10.37,2013-10-20 12:21:00,
2013-10-20 04:26:00,42.3,40.7,29.79,NNW,347,0.0,0.0,94,0.03,RA,,0.04,WeatherDisplay:10.37,2013-10-20 12:26:00,
2013-10-20 04:31:00,42.3,40.4,29.79,NNW,347,0.0,0.0,93,0.02,RA,,0.04,WeatherDisplay:10.37,2013-10-20 12:31:00,
2013-10-20 04:36:00,42.3,40.4,29.79,NNW,347,0.0,0.0,93,0.01,,,0.04,WeatherDisplay:10.37,2013-10-20 12:36:00,
2013-10-20 04:41:00,42.3,40.4,29.80,NNW,347,0.0,0.0,93,0.01,CLR,,0.04,WeatherDisplay:10.37,2013-10-20 12:41:00,
2013-10-20 04:46:00,42.3,40.4,29.80,NNW,347,0.0,0.0,93,0.01,CLR,,0.04,WeatherDisplay:10.37,2013-10-20 12:46:00,
2013-10-20 04:51:00,42.2,40.3,29.80,NNW,347,0.0,0.0,93,0.01,CLR,,0.04,WeatherDisplay:10.37,2013-10-20 12:51:00,
2013-10-20 04:56:00,42.3,40.4,29.80,NNW,347,0.0,0.0,93,0.01,CLR,,0.04,WeatherDisplay:10.37,2013-10-20 12:56:00,
2013-10-20 05:01:00,42.2,40.3,29.80,NNW,347,0.0,0.0,93,0.01,CLR,,0.04,WeatherDisplay:10.37,2013-10-20 13:01:00,
2013-10-20 05:06:00,42.2,40.3,29.80,NNW,347,0.0,0.0,93,0.01,CLR,,0.04,WeatherDisplay:10.37,2013-10-20 13:06:00,
2013-10-20 05:11:00,42.2,40.3,29.80,NNW,347,0.0,0.0,93,0.01,CLR,,0.04,WeatherDisplay:10.37,2013-10-20 13:11:00,
2013-10-20 05:16:00,42.1,40.2,29.80,NNW,347,0.0,0.0,93,0.01,CLR,,0.04,WeatherDisplay:10.37,2013-10-20 13:16:00,
2013-10-20 05:21:00,42.1,40.2,29.80,NNW,347,0.0,0.0,93,0.01,CLR,,0.04,WeatherDisplay:10.37,2013-10-20 13:21:00,
2013-10-20 05:26:00,42.0,40.1,29.80,NNW,347,0.0,0.0,93,0.00,CLR,,0.04,WeatherDisplay:10.37,2013-10-20 13:26:00,
2013-10-20 05:31:00,42.3,40.1,29.81,NNW,347,0.0,0.0,92,0.00,CLR,,0.04,WeatherDisplay:10.37,2013-10-20 13:31:00,
2013-10-20 05:36:00,42.5,40.3,29.81,NNW,347,0.0,0.0,92,0.01,RA,,0.05,WeatherDisplay:10.37,2013-10-20 13:36:00,
2013-10-20 05:41:00,42.4,40.5,29.81,NNW,347,0.0,0.0,93,0.01,RA,,0.05,WeatherDisplay:10.37,2013-10-20 13:41:00,
2013-10-20 05:46:00,42.3,40.4,29.81,NNW,347,0.0,0.0,93,0.01,,,0.05,WeatherDisplay:10.37,2013-10-20 13:46:00,
2013-10-20 05:51:00,42.2,40.0,29.81,NNW,347,0.0,0.0,92,0.01,CLR,,0.05,WeatherDisplay:10.37,2013-10-20 13:51:00,
2013-10-20 05:56:00,42.0,39.8,29.81,NNW,347,0.0,0.0,92,0.01,CLR,,0.05,WeatherDisplay:10.37,2013-10-20 13:56:00,
2013-10-20 06:01:00,41.8,39.6,29.81,NNW,347,0.0,0.0,92,0.01,CLR,,0.05,WeatherDisplay:10.37,2013-10-20 14:01:00,
2013-10-20 06:06:00,41.7,39.5,29.81,NNW,347,0.0,0.0,92,0.01,CLR,,0.05,WeatherDisplay:10.37,2013-10-20 14:06:00,
2013-10-20 06:11:00,41.7,39.5,29.82,NNW,347,0.0,0.0,92,0.01,CLR,,0.05,WeatherDisplay:10.37,2013-10-20 14:11:00,
2013-10-20 06:16:00,41.5,38.8,29.82,NNW,347,0.0,0.0,90,0.01,CLR,,0.05,WeatherDisplay:10.37,2013-10-20 14:16:00,
2013-10-20 06:21:00,41.2,38.5,29.82,NNW,347,0.0,0.0,90,0.01,CLR,,0.05,WeatherDisplay:10.37,2013-10-20 14:21:00,
2013-10-20 06:26:00,40.8,38.1,29.83,NNW,347,0.0,0.0,90,0.01,CLR,,0.05,WeatherDisplay:10.37,2013-10-20 14:26:00,
2013-10-20 06:31:00,40.6,38.2,29.83,NNW,347,0.0,0.0,91,0.02,RA,,0.06,WeatherDisplay:10.37,2013-10-20 14:31:00,
2013-10-20 06:36:00,40.4,38.3,29.83,NNW,347,0.0,0.0,92,0.01,RA,,0.06,WeatherDisplay:10.37,2013-10-20 14:36:00,
2013-10-20 06:41:00,40.2,38.1,29.83,NNW,347,0.0,0.0,92,0.01,CLR,,0.06,WeatherDisplay:10.37,2013-10-20 14:41:00,
2013-10-20 06:46:00,40.1,38.2,29.82,NNW,347,0.0,0.0,93,0.01,CLR,,0.06,WeatherDisplay:10.37,2013-10-20 14:46:00,
2013-10-20 06:51:00,40.0,38.1,29.82,NNW,347,0.0,0.0,93,0.01,CLR,,0.06,WeatherDisplay:10.37,2013-10-20 14:51:00,
2013-10-20 06:56:00,39.7,37.8,29.82,NNW,347,0.0,0.0,93,0.01,CLR,,0.06,WeatherDisplay:10.37,2013-10-20 14:56:00,
2013-10-20 07:01:00,39.6,37.7,29.82,NNW,347,0.0,0.0,93,0.01,CLR,,0.06,WeatherDisplay:10.37,2013-10-20 15:01:00,
2013-10-20 07:06:00,39.5,37.9,29.83,NNW,347,0.0,0.0,94,0.02,RA,,0.07,WeatherDisplay:10.37,2013-10-20 15:06:00,
2013-10-20 07:11:00,39.5,37.9,29.83,NNW,347,0.0,0.0,94,0.04,RA,,0.09,WeatherDisplay:10.37,2013-10-20 15:11:00,
2013-10-20 07:16:00,39.7,38.1,29.83,NNW,347,0.0,0.0,94,0.07,RA,,0.13,WeatherDisplay:10.37,2013-10-20 15:16:00,
2013-10-20 07:21:00,39.7,38.1,29.84,NNW,347,0.0,0.0,94,0.09,RA,,0.14,WeatherDisplay:10.37,2013-10-20 15:21:00,
2013-10-20 07:26:00,39.8,38.2,29.84,NNW,347,0.0,0.0,94,0.09,RA,,0.14,WeatherDisplay:10.37,2013-10-20 15:26:00,
2013-10-20 07:31:00,39.8,38.2,29.84,NNW,347,0.0,0.0,94,0.08,,,0.14,WeatherDisplay:10.37,2013-10-20 15:31:00,
2013-10-20 07:36:00,39.7,38.1,29.84,NNW,347,0.0,0.0,94,0.08,CLR,,0.14,WeatherDisplay:10.37,2013-10-20 15:36:00,
2013-10-20 07:41:00,39.7,38.1,29.84,NNW,347,0.0,0.0,94,0.08,CLR,,0.14,WeatherDisplay:10.37,2013-10-20 15:41:00,
2013-10-20 07:46:00,39.7,38.1,29.84,NNW,347,0.0,0.0,94,0.08,CLR,,0.14,WeatherDisplay:10.37,2013-10-20 15:46:00,
2013-10-20 07:51:00,39.7,38.4,29.84,NNW,347,0.0,0.0,95,0.08,CLR,,0.14,WeatherDisplay:10.37,2013-10-20 15:51:00,
2013-10-20 07:56:00,39.6,38.3,29.84,NNW,347,0.0,0.0,95,0.08,CLR,,0.14,WeatherDisplay:10.37,2013-10-20 15:56:00,
2013-10-20 08:01:00,39.6,38.3,29.85,NNW,347,0.0,0.0,95,0.08,CLR,,0.14,WeatherDisplay:10.37,2013-10-20 16:01:00,
2013-10-20 08:06:00,39.6,38.3,29.84,NNW,347,0.0,0.0,95,0.07,CLR,,0.14,WeatherDisplay:10.37,2013-10-20 16:06:00,
2013-10-20 08:11:00,39.6,38.3,29.84,NNW,347,0.0,0.0,95,0.05,CLR,,0.14,WeatherDisplay:10.37,2013-10-20 16:11:00,
2013-10-20 08:16:00,39.6,38.3,29.85,NNW,347,0.0,0.0,95,0.02,CLR,,0.14,WeatherDisplay:10.37,2013-10-20 16:16:00,
2013-10-20 08:21:00,39.6,38.3,29.85,NNW,347,0.0,0.0,95,0.00,CLR,,0.14,WeatherDisplay:10.37,2013-10-20 16:21:00,
2013-10-20 08:26:00,39.5,38.2,29.85,NNW,347,0.0,0.0,95,0.00,CLR,,0.14,WeatherDisplay:10.37,2013-10-20 16:26:00,
2013-10-20 08:31:00,39.4,38.1,29.85,NNW,347,0.0,0.0,95,0.00,CLR,,0.14,WeatherDisplay:10.37,2013-10-20 16:31:00,
2013-10-20 08:36:00,39.3,38.0,29.85,NNW,347,0.0,0.0,95,0.00,CLR,,0.14,WeatherDisplay:10.37,2013-10-20 16:36:00,
2013-10-20 08:41:00,39.2,37.9,29.86,NNW,347,0.0,0.0,95,0.00,CLR,,0.14,WeatherDisplay:10.37,2013-10-20 16:41:00,
2013-10-20 08:46:00,39.2,37.9,29.86,NNW,347,0.0,0.0,95,0.01,RA,,0.15,WeatherDisplay:10.37,2013-10-20 16:46:00,
2013-10-20 08:51:00,39.2,37.9,29.86,NNW,347,0.0,0.0,95,0.03,RA,,0.17,WeatherDisplay:10.37,2013-10-20 16:51:00,
2013-10-20 08:56:00,39.3,38.0,29.86,NNW,347,0.0,0.0,95,0.03,RA,,0.17,WeatherDisplay:10.37,2013-10-20 16:56:00,
2013-10-20 09:01:00,39.3,38.0,29.86,NNW,347,0.0,0.0,95,0.03,,,0.17,WeatherDisplay:10.37,2013-10-20 17:01:00,
2013-10-20 09:06:00,39.3,38.0,29.86,NNW,347,0.0,0.0,95,0.04,RA,,0.18,WeatherDisplay:10.37,2013-10-20 17:06:00,
2013-10-20 09:11:00,39.3,38.0,29.86,NNW,347,0.0,0.0,95,0.04,RA,,0.18,WeatherDisplay:10.37,2013-10-20 17:11:00,
2013-10-20 09:16:00,39.3,38.0,29.86,NNW,347,0.0,0.0,95,0.04,,,0.18,WeatherDisplay:10.37,2013-10-20 17:16:00,
2013-10-20 09:21:00,39.3,38.0,29.86,NNW,347,0.0,0.0,95,0.05,RA,,0.19,WeatherDisplay:10.37,2013-10-20 17:21:00,
2013-10-20 09:26:00,39.3,38.0,29.86,NNW,347,0.0,0.0,95,0.05,RA,,0.19,WeatherDisplay:10.37,2013-10-20 17:26:00,
2013-10-20 09:31:00,39.3,38.0,29.86,NNW,347,0.0,0.0,95,0.05,,,0.19,WeatherDisplay:10.37,2013-10-20 17:31:00,
2013-10-20 09:36:00,39.3,38.0,29.86,NNW,347,0.0,0.0,95,0.05,CLR,,0.19,WeatherDisplay:10.37,2013-10-20 17:36:00,
2013-10-20 09:41:00,39.4,38.1,29.86,NNW,347,0.0,0.0,95,0.05,CLR,,0.19,WeatherDisplay:10.37,2013-10-20 17:41:00,
2013-10-20 09:46:00,39.5,38.2,29.86,NNW,347,0.0,0.0,95,0.04,CLR,,0.19,WeatherDisplay:10.37,2013-10-20 17:46:00,
2013-10-20 09:51:00,39.6,38.3,29.87,NNW,347,0.0,0.0,95,0.02,CLR,,0.19,WeatherDisplay:10.37,2013-10-20 17:51:00,
2013-10-20 09:56:00,39.6,38.3,29.87,NNW,347,0.0,0.0,95,0.02,CLR,,0.19,WeatherDisplay:10.37,2013-10-20 17:56:00,
2013-10-20 10:01:00,39.7,38.4,29.88,NNW,347,0.0,0.0,95,0.03,RA,,0.20,WeatherDisplay:10.37,2013-10-20 18:01:00,
2013-10-20 10:06:00,39.7,38.4,29.88,NNW,347,0.0,0.0,95,0.03,RA,,0.21,WeatherDisplay:10.37,2013-10-20 18:06:00,
2013-10-20 10:11:00,39.7,38.4,29.88,NNW,347,0.0,0.0,95,0.04,RA,,0.22,WeatherDisplay:10.37,2013-10-20 18:11:00,
2013-10-20 10:16:00,39.7,38.7,29.88,NNW,347,0.0,0.0,96,0.04,RA,,0.22,WeatherDisplay:10.37,2013-10-20 18:16:00,
2013-10-20 10:21:00,39.7,38.7,29.88,NNW,347,0.0,0.0,96,0.04,RA,,0.23,WeatherDisplay:10.37,2013-10-20 18:21:00,
2013-10-20 10:26:00,39.7,38.7,29.88,NNW,347,0.0,0.0,96,0.04,RA,,0.23,WeatherDisplay:10.37,2013-10-20 18:26:00,
2013-10-20 10:31:00,39.6,38.6,29.88,NNW,347,0.0,0.0,96,0.04,CLR,,0.23,WeatherDisplay:10.37,2013-10-20 18:31:00,
2013-10-20 10:36:00,39.6,38.6,29.89,NNW,347,0.0,0.0,96,0.05,RA,,0.24,WeatherDisplay:10.37,2013-10-20 18:36:00,
2013-10-20 10:41:00,39.6,38.6,29.88,NNW,347,0.0,0.0,96,0.05,RA,,0.24,WeatherDisplay:10.37,2013-10-20 18:41:00,
2013-10-20 10:46:00,39.6,38.6,29.89,NNW,347,0.0,0.0,96,0.05,,,0.24,WeatherDisplay:10.37,2013-10-20 18:46:00,
2013-10-20 10:51:00,39.7,38.7,29.89,NNW,347,0.0,0.0,96,0.05,CLR,,0.24,WeatherDisplay:10.37,2013-10-20 18:51:00,
2013-10-20 10:56:00,39.8,38.8,29.89,NNW,347,0.0,0.0,96,0.05,CLR,,0.24,WeatherDisplay:10.37,2013-10-20 18:56:00,
2013-10-20 11:01:00,39.8,38.8,29.90,NNW,347,0.0,0.0,96,0.04,CLR,,0.24,WeatherDisplay:10.37,2013-10-20 19:01:00,
2013-10-20 11:06:00,39.7,38.7,29.90,NNW,347,0.0,0.0,96,0.05,RA,,0.26,WeatherDisplay:10.37,2013-10-20 19:06:00,
2013-10-20 11:11:00,39.7,38.7,29.90,NNW,347,0.0,0.0,96,0.05,RA,,0.27,WeatherDisplay:10.37,2013-10-20 19:11:00,
2013-10-20 11:16:00,39.7,38.7,29.90,NNW,347,0.0,0.0,96,0.06,RA,,0.28,WeatherDisplay:10.37,2013-10-20 19:16:00,
2013-10-20 11:21:00,39.8,38.8,29.90,NNW,347,0.0,0.0,96,0.05,RA,,0.28,WeatherDisplay:10.37,2013-10-20 19:21:00,
2013-10-20 11:26:00,39.9,38.9,29.90,NNW,347,0.0,0.0,96,0.05,CLR,,0.28,WeatherDisplay:10.37,2013-10-20 19:26:00,
2013-10-20 11:31:00,40.1,39.1,29.90,NNW,347,0.0,0.0,96,0.05,CLR,,0.28,WeatherDisplay:10.37,2013-10-20 19:31:00,
2013-10-20 11:36:00,40.1,39.1,29.89,NNW,347,0.0,0.0,96,0.04,CLR,,0.28,WeatherDisplay:10.37,2013-10-20 19:36:00,
2013-10-20 11:41:00,40.1,39.1,29.90,NNW,347,0.0,0.0,96,0.04,CLR,,0.28,WeatherDisplay:10.37,2013-10-20 19:41:00,
2013-10-20 11:46:00,40.0,39.0,29.90,NNW,347,0.0,0.0,96,0.06,RA,,0.30,WeatherDisplay:10.37,2013-10-20 19:46:00,
2013-10-20 11:51:00,39.9,38.9,29.90,NNW,347,0.0,0.0,96,0.08,RA,,0.32,WeatherDisplay:10.37,2013-10-20 19:51:00,
2013-10-20 11:56:00,39.9,38.9,29.90,NNW,347,0.0,0.0,96,0.08,RA,,0.32,WeatherDisplay:10.37,2013-10-20 19:56:00,
2013-10-20 12:01:00,39.8,38.8,29.91,NNW,347,0.0,0.0,96,0.08,CLR,,0.32,WeatherDisplay:10.37,2013-10-20 20:01:00,
2013-10-20 12:06:00,39.9,38.9,29.91,NNW,347,0.0,0.0,96,0.06,CLR,,0.32,WeatherDisplay:10.37,2013-10-20 20:06:00,
2013-10-20 12:11:00,39.9,38.9,29.91,NNW,347,0.0,0.0,96,0.05,CLR,,0.32,WeatherDisplay:10.37,2013-10-20 20:11:00,
2013-10-20 12:16:00,39.8,38.8,29.91,NNW,347,0.0,0.0,96,0.04,CLR,,0.32,WeatherDisplay:10.37,2013-10-20 20:16:00,
2013-10-20 12:21:00,39.9,38.9,29.91,NNW,347,0.0,0.0,96,0.05,RA,,0.33,WeatherDisplay:10.37,2013-10-20 20:21:00,
2013-10-20 12:26:00,39.9,38.9,29.91,NNW,347,0.0,0.0,96,0.05,RA,,0.33,WeatherDisplay:10.37,2013-10-20 20:26:00,
2013-10-20 12:31:00,39.8,38.8,29.91,NNW,347,0.0,0.0,96,0.05,,,0.33,WeatherDisplay:10.37,2013-10-20 20:31:00,
2013-10-20 12:36:00,39.8,38.8,29.91,NNW,347,0.0,0.0,96,0.06,RA,,0.34,WeatherDisplay:10.37,2013-10-20 20:36:00,
2013-10-20 12:41:00,39.8,38.5,29.91,NNW,347,0.0,0.0,95,0.07,RA,,0.35,WeatherDisplay:10.37,2013-10-20 20:41:00,
2013-10-20 12:46:00,39.9,38.6,29.91,NNW,347,0.0,0.0,95,0.05,RA,,0.35,WeatherDisplay:10.37,2013-10-20 20:46:00,
2013-10-20 12:51:00,39.8,38.5,29.91,NNW,347,0.0,0.0,95,0.03,CLR,,0.35,WeatherDisplay:10.37,2013-10-20 20:51:00,
2013-10-20 12:56:00,40.0,39.0,29.91,NNW,347,0.0,0.0,96,0.03,CLR,,0.35,WeatherDisplay:10.37,2013-10-20 20:56:00,
2013-10-20 13:01:00,40.1,39.1,29.91,NNW,347,0.0,0.0,96,0.04,RA,,0.36,WeatherDisplay:10.37,2013-10-20 21:01:00,
2013-10-20 13:06:00,40.1,39.1,29.91,NNW,347,0.0,0.0,96,0.04,RA,,0.36,WeatherDisplay:10.37,2013-10-20 21:06:00,
2013-10-20 13:11:00,40.1,39.1,29.91,NNW,347,0.0,0.0,96,0.04,,,0.36,WeatherDisplay:10.37,2013-10-20 21:11:00,
2013-10-20 13:16:00,40.2,39.2,29.91,NNW,347,0.0,0.0,96,0.04,CLR,,0.36,WeatherDisplay:10.37,2013-10-20 21:16:00,
2013-10-20 13:21:00,40.3,39.3,29.92,NNW,347,0.0,0.0,96,0.03,CLR,,0.36,WeatherDisplay:10.37,2013-10-20 21:21:00,
2013-10-20 13:26:00,40.4,39.4,29.92,NNW,347,0.0,0.0,96,0.03,CLR,,0.36,WeatherDisplay:10.37,2013-10-20 21:26:00,
2013-10-20 13:31:00,40.4,39.4,29.92,NNW,347,0.0,0.0,96,0.03,CLR,,0.36,WeatherDisplay:10.37,2013-10-20 21:31:00,
2013-10-20 13:36:00,40.4,39.4,29.92,NNW,347,0.0,0.0,96,0.03,RA,,0.37,WeatherDisplay:10.37,2013-10-20 21:36:00,
2013-10-20 13:41:00,40.4,39.4,29.92,NNW,347,0.0,0.0,96,0.02,RA,,0.37,WeatherDisplay:10.37,2013-10-20 21:41:00,
2013-10-20 13:46:00,40.4,39.4,29.92,NNW,347,0.0,0.0,96,0.02,CLR,,0.37,WeatherDisplay:10.37,2013-10-20 21:46:00,
2013-10-20 13:51:00,40.5,39.4,29.92,NNW,347,0.0,0.0,96,0.02,CLR,,0.37,WeatherDisplay:10.37,2013-10-20 21:51:00,
2013-10-20 13:56:00,40.6,39.5,29.92,NNW,347,0.0,0.0,96,0.02,CLR,,0.37,WeatherDisplay:10.37,2013-10-20 21:56:00,
2013-10-20 14:01:00,40.6,39.5,29.92,NNW,347,0.0,0.0,96,0.01,CLR,,0.37,WeatherDisplay:10.37,2013-10-20 22:01:00,
2013-10-20 14:06:00,40.7,39.6,29.92,NNW,347,0.0,0.0,96,0.01,CLR,,0.37,WeatherDisplay:10.37,2013-10-20 22:06:00,
2013-10-20 14:11:00,40.7,39.6,29.92,NNW,347,0.0,0.0,96,0.01,CLR,,0.37,WeatherDisplay:10.37,2013-10-20 22:11:00,
2013-10-20 14:16:00,40.7,39.6,29.92,NNW,347,0.0,0.0,96,0.01,CLR,,0.37,WeatherDisplay:10.37,2013-10-20 22:16:00,
2013-10-20 14:21:00,40.7,39.6,29.92,NNW,347,0.0,0.0,96,0.01,CLR,,0.37,WeatherDisplay:10.37,2013-10-20 22:21:00,
2013-10-20 14:26:00,40.9,39.8,29.92,NNW,347,0.0,0.0,96,0.01,CLR,,0.37,WeatherDisplay:10.37,2013-10-20 22:26:00,
2013-10-20 14:31:00,41.1,40.0,29.92,NNW,347,0.0,0.0,96,0.01,CLR,,0.37,WeatherDisplay:10.37,2013-10-20 22:31:00,
2013-10-20 14:36:00,41.3,40.2,29.92,NNW,347,0.0,0.0,96,0.00,CLR,,0.37,WeatherDisplay:10.37,2013-10-20 22:36:00,
2013-10-20 14:41:00,41.3,40.2,29.92,NNW,347,0.0,0.0,96,0.00,CLR,,0.37,WeatherDisplay:10.37,2013-10-20 22:41:00,
2013-10-20 14:46:00,41.3,40.2,29.92,NNW,347,0.0,0.0,96,0.00,CLR,,0.37,WeatherDisplay:10.37,2013-10-20 22:46:00,
2013-10-20 14:51:00,41.4,40.3,29.92,NNW,347,0.0,0.0,96,0.00,CLR,,0.37,WeatherDisplay:10.37,2013-10-20 22:51:00,
2013-10-20 14:56:00,41.7,40.4,29.92,NNW,347,0.0,0.0,95,0.00,CLR,,0.37,WeatherDisplay:10.37,2013-10-20 22:56:00,
2013-10-20 15:01:00,42.2,41.1,29.92,NNW,347,0.0,0.0,96,0.00,CLR,,0.37,WeatherDisplay:10.37,2013-10-20 23:01:00,
2013-10-20 15:06:00,42.5,42.5,29.92,NNW,347,0.0,0.0,100,0.00,,,0.37,WeatherDisplay:10.37,2013-10-20 23:06:00,
2013-10-20 15:11:00,42.7,41.6,29.92,NNW,347,0.0,0.0,96,0.00,CLR,,0.37,WeatherDisplay:10.37,2013-10-20 23:11:00,
2013-10-20 15:16:00,42.7,41.4,29.92,NNW,347,0.0,0.0,95,0.00,CLR,,0.37,WeatherDisplay:10.37,2013-10-20 23:16:00,
2013-10-20 15:21:00,42.7,41.4,29.92,NNW,347,0.0,0.0,95,0.00,CLR,,0.37,WeatherDisplay:10.37,2013-10-20 23:21:00,
2013-10-20 15:26:00,42.7,41.4,29.91,NNW,347,0.0,0.0,95,0.00,CLR,,0.37,WeatherDisplay:10.37,2013-10-20 23:26:00,
2013-10-20 15:31:00,42.6,41.3,29.91,NNW,347,0.0,0.0,95,0.00,CLR,,0.37,WeatherDisplay:10.37,2013-10-20 23:31:00,
2013-10-20 15:36:00,42.7,41.1,29.92,NNW,347,0.0,0.0,94,0.00,CLR,,0.37,WeatherDisplay:10.37,2013-10-20 23:36:00,
2013-10-20 15:41:00,42.8,41.2,29.91,NNW,347,0.0,0.0,94,0.00,CLR,,0.37,WeatherDisplay:10.37,2013-10-20 23:41:00,
2013-10-20 15:46:00,42.8,41.2,29.92,NNW,347,0.0,0.0,94,0.00,CLR,,0.37,WeatherDisplay:10.37,2013-10-20 23:46:00,
2013-10-20 15:51:00,42.7,41.1,29.91,NNW,347,0.0,0.0,94,0.00,CLR,,0.37,WeatherDisplay:10.37,2013-10-20 23:51:00,
2013-10-20 15:56:00,42.7,40.8,29.91,NNW,347,0.0,0.0,93,0.00,CLR,,0.37,WeatherDisplay:10.37,2013-10-20 23:56:00,
2013-10-20 16:01:00,42.7,40.8,29.91,NNW,347,0.0,0.0,93,0.00,CLR,,0.37,WeatherDisplay:10.37,2013-10-21 00:01:00,
2013-10-20 16:06:00,42.7,40.5,29.91,NNW,347,0.0,0.0,92,0.00,CLR,,0.37,WeatherDisplay:10.37,2013-10-21 00:06:00,
2013-10-20 16:11:00,42.7,40.5,29.91,NNW,347,0.0,0.0,92,0.00,CLR,,0.37,WeatherDisplay:10.37,2013-10-21 00:11:00,
2013-10-20 16:16:00,42.7,40.5,29.91,NNW,347,0.0,0.0,92,0.00,CLR,,0.37,WeatherDisplay:10.37,2013-10-21 00:16:00,
2013-10-20 16:21:00,42.7,40.5,29.91,NNW,347,0.0,0.0,92,0.00,CLR,,0.37,WeatherDisplay:10.37,2013-10-21 00:21:00,
2013-10-20 16:26:00,42.7,40.5,29.91,NNW,347,0.0,0.0,92,0.00,CLR,,0.37,WeatherDisplay:10.37,2013-10-21 00:26:00,
2013-10-20 16:31:00,42.7,40.5,29.91,NNW,347,0.0,0.0,92,0.00,CLR,,0.37,WeatherDisplay:10.37,2013-10-21 00:31:00,
2013-10-20 16:36:00,42.7,40.5,29.91,NNW,347,0.0,0.0,92,0.00,CLR,,0.37,WeatherDisplay:10.37,2013-10-21 00:36:00,
2013-10-20 16:41:00,42.6,39.9,29.91,NNW,347,0.0,0.0,90,0.00,CLR,,0.37,WeatherDisplay:10.37,2013-10-21 00:41:00,
2013-10-20 16:46:00,42.4,39.4,29.92,NNW,347,0.0,0.0,89,0.00,CLR,,0.37,WeatherDisplay:10.37,2013-10-21 00:46:00,
2013-10-20 16:51:00,42.2,39.5,29.92,NNW,347,0.0,0.0,90,0.00,CLR,,0.37,WeatherDisplay:10.37,2013-10-21 00:51:00,
2013-10-20 16:56:00,41.9,39.2,29.93,NNW,347,0.0,0.0,90,0.01,RA,,0.38,WeatherDisplay:10.37,2013-10-21 00:56:00,
2013-10-20 17:01:00,41.6,38.9,29.93,NNW,347,0.0,0.0,90,0.01,RA,,0.38,WeatherDisplay:10.37,2013-10-21 01:01:00,
2013-10-20 17:06:00,41.3,38.6,29.93,NNW,347,0.0,0.0,90,0.01,,,0.38,WeatherDisplay:10.37,2013-10-21 01:06:00,
2013-10-20 17:11:00,41.1,38.7,29.93,NNW,347,0.0,0.0,91,0.01,CLR,,0.38,WeatherDisplay:10.37,2013-10-21 01:11:00,
2013-10-20 17:16:00,41.0,38.3,29.93,NNW,347,0.0,0.0,90,0.01,CLR,,0.38,WeatherDisplay:10.37,2013-10-21 01:16:00,
2013-10-20 17:21:00,41.0,38.3,29.93,NNW,347,0.0,0.0,90,0.01,CLR,,0.39,WeatherDisplay:10.37,2013-10-21 01:21:00,
2013-10-20 17:26:00,41.0,38.6,29.93,NNW,347,0.0,0.0,91,0.02,RA,,0.39,WeatherDisplay:10.37,2013-10-21 01:26:00,
2013-10-20 17:31:00,41.0,38.9,29.93,NNW,347,0.0,0.0,92,0.02,RA,,0.39,WeatherDisplay:10.37,2013-10-21 01:31:00,
2013-10-20 17:36:00,41.0,38.9,29.93,NNW,347,0.0,0.0,92,0.02,CLR,,0.39,WeatherDisplay:10.37,2013-10-21 01:36:00,
2013-10-20 17:41:00,40.9,38.8,29.93,NNW,347,0.0,0.0,92,0.02,CLR,,0.39,WeatherDisplay:10.37,2013-10-21 01:41:00,
2013-10-20 17:46:00,40.8,38.9,29.93,NNW,347,0.0,0.0,93,0.02,CLR,,0.39,WeatherDisplay:10.37,2013-10-21 01:46:00,
2013-10-20 17:51:00,40.7,38.8,29.93,NNW,347,0.0,0.0,93,0.02,CLR,,0.39,WeatherDisplay:10.37,2013-10-21 01:51:00,
2013-10-20 17:56:00,40.7,38.8,29.93,NNW,347,0.0,0.0,93,0.01,CLR,,0.39,WeatherDisplay:10.37,2013-10-21 01:56:00,
2013-10-20 18:01:00,40.6,38.7,29.93,NNW,347,0.0,0.0,93,0.01,CLR,,0.39,WeatherDisplay:10.37,2013-10-21 02:01:00,
2013-10-20 18:06:00,40.5,38.6,29.93,NNW,347,0.0,0.0,93,0.01,CLR,,0.39,WeatherDisplay:10.37,2013-10-21 02:06:00,
2013-10-20 18:11:00,40.5,38.9,29.94,NNW,347,0.0,0.0,94,0.01,CLR,,0.39,WeatherDisplay:10.37,2013-10-21 02:11:00,
2013-10-20 18:16:00,40.5,38.9,29.94,NNW,347,0.0,0.0,94,0.01,CLR,,0.39,WeatherDisplay:10.37,2013-10-21 02:16:00,
2013-10-20 18:21:00,40.5,38.9,29.94,NNW,347,0.0,0.0,94,0.01,CLR,,0.39,WeatherDisplay:10.37,2013-10-21 02:21:00,
2013-10-20 18:26:00,40.5,38.9,29.94,NNW,347,0.0,0.0,94,0.01,RA,,0.40,WeatherDisplay:10.37,2013-10-21 02:26:00,
2013-10-20 18:31:00,40.5,38.9,29.94,NNW,347,0.0,0.0,94,0.03,RA,,0.42,WeatherDisplay:10.37,2013-10-21 02:31:00,
2013-10-20 18:36:00,40.4,38.8,29.94,NNW,347,0.0,0.0,94,0.04,RA,,0.43,WeatherDisplay:10.37,2013-10-21 02:36:00,
2013-10-20 18:41:00,40.4,38.8,29.94,NNW,347,0.0,0.0,94,0.04,RA,,0.43,WeatherDisplay:10.37,2013-10-21 02:41:00,
2013-10-20 18:46:00,40.3,38.7,29.94,NNW,347,0.0,0.0,94,0.04,,,0.43,WeatherDisplay:10.37,2013-10-21 02:46:00,
2013-10-20 18:51:00,40.0,38.4,29.94,NNW,347,0.0,0.0,94,0.04,CLR,,0.43,WeatherDisplay:10.37,2013-10-21 02:51:00,
2013-10-20 18:56:00,39.8,38.2,29.94,NNW,347,0.0,0.0,94,0.04,CLR,,0.43,WeatherDisplay:10.37,2013-10-21 02:56:00,
2013-10-20 19:01:00,39.6,38.0,29.94,NNW,347,0.0,0.0,94,0.04,CLR,,0.43,WeatherDisplay:10.37,2013-10-21 03:01:00,
2013-10-20 19:06:00,39.4,37.8,29.93,NNW,347,0.0,0.0,94,0.04,CLR,,0.43,WeatherDisplay:10.37,2013-10-21 03:06:00,
2013-10-20 19:11:00,39.3,37.7,29.93,NNW,347,0.0,0.0,94,0.04,CLR,,0.43,WeatherDisplay:10.37,2013-10-21 03:11:00,
2013-10-20 19:16:00,39.1,37.5,29.93,NNW,347,0.0,0.0,94,0.04,CLR,,0.43,WeatherDisplay:10.37,2013-10-21 03:16:00,
2013-10-20 19:21:00,39.0,37.4,29.93,NNW,347,0.0,0.0,94,0.04,CLR,,0.43,WeatherDisplay:10.37,2013-10-21 03:21:00,
2013-10-20 19:26:00,39.1,37.5,29.94,NNW,347,0.0,0.0,94,0.03,CLR,,0.43,WeatherDisplay:10.37,2013-10-21 03:26:00,
2013-10-20 19:31:00,39.1,37.5,29.94,NNW,347,0.0,0.0,94,0.01,CLR,,0.43,WeatherDisplay:10.37,2013-10-21 03:31:00,
2013-10-20 19:36:00,39.0,37.4,29.94,NNW,347,0.0,0.0,94,0.01,RA,,0.44,WeatherDisplay:10.37,2013-10-21 03:36:00,
2013-10-20 19:41:00,38.9,37.3,29.94,NNW,347,0.0,0.0,94,0.02,RA,,0.45,WeatherDisplay:10.37,2013-10-21 03:41:00,
2013-10-20 19:46:00,38.9,37.3,29.94,NNW,347,0.0,0.0,94,0.03,RA,,0.46,WeatherDisplay:10.37,2013-10-21 03:46:00,
2013-10-20 19:51:00,38.9,37.3,29.94,NNW,347,0.0,0.0,94,0.04,RA,,0.47,WeatherDisplay:10.37,2013-10-21 03:51:00,
2013-10-20 19:56:00,38.8,37.2,29.94,NNW,347,0.0,0.0,94,0.05,RA,,0.48,WeatherDisplay:10.37,2013-10-21 03:56:00,
2013-10-20 20:01:00,38.8,36.9,29.94,NNW,347,0.0,0.0,93,0.06,RA,,0.49,WeatherDisplay:10.37,2013-10-21 04:01:00,
2013-10-20 20:06:00,38.8,36.9,29.95,NNW,347,0.0,0.0,93,0.08,RA,,0.51,WeatherDisplay:10.37,2013-10-21 04:06:00,
2013-10-20 20:11:00,38.8,36.9,29.95,NNW,347,0.0,0.0,93,0.10,RA,,0.53,WeatherDisplay:10.37,2013-10-21 04:11:00,
2013-10-20 20:16:00,38.7,36.9,29.95,NNW,347,0.0,0.0,93,0.11,RA,,0.54,WeatherDisplay:10.37,2013-10-21 04:16:00,
2013-10-20 21:39:00,37.9,36.6,29.95,NNW,347,0.0,0.0,95,0.06,RA,,0.65,WeatherDisplay:10.37,2013-10-21 05:39:00,
2013-10-20 21:44:00,37.8,36.5,29.95,NNW,347,0.0,0.0,95,0.05,CLR,,0.65,WeatherDisplay:10.37,2013-10-21 05:44:00,
2013-10-20 21:49:00,37.7,36.4,29.95,NNW,347,0.0,0.0,95,0.04,CLR,,0.65,WeatherDisplay:10.37,2013-10-21 05:49:00,
2013-10-20 21:54:00,37.7,36.4,29.96,NNW,347,0.0,0.0,95,0.04,CLR,,0.65,WeatherDisplay:10.37,2013-10-21 05:54:00,
2013-10-20 21:59:00,37.6,36.3,29.96,NNW,347,0.0,0.0,95,0.03,CLR,,0.65,WeatherDisplay:10.37,2013-10-21 05:59:00,
2013-10-20 22:04:00,37.6,36.3,29.96,NNW,347,0.0,0.0,95,0.04,RA,,0.66,WeatherDisplay:10.37,2013-10-21 06:04:00,
2013-10-20 22:09:00,37.6,36.3,29.96,NNW,347,0.0,0.0,95,0.02,RA,,0.66,WeatherDisplay:10.37,2013-10-21 06:09:00,
2013-10-20 22:14:00,37.6,36.3,29.96,NNW,347,0.0,0.0,95,0.03,RA,,0.67,WeatherDisplay:10.37,2013-10-21 06:14:00,
2013-10-20 22:19:00,37.6,36.3,29.96,NNW,347,0.0,0.0,95,0.04,RA,,0.68,WeatherDisplay:10.37,2013-10-21 06:19:00,
2013-10-20 22:24:00,37.7,36.4,29.97,NNW,347,0.0,0.0,95,0.05,RA,,0.69,WeatherDisplay:10.37,2013-10-21 06:24:00,
2013-10-20 22:29:00,37.7,36.4,29.97,NNW,347,0.0,0.0,95,0.07,RA,,0.71,WeatherDisplay:10.37,2013-10-21 06:29:00,
2013-10-20 22:34:00,37.6,36.3,29.97,NNW,347,0.0,0.0,95,0.08,RA,,0.73,WeatherDisplay:10.37,2013-10-21 06:34:00,
2013-10-20 22:39:00,37.4,36.1,29.97,NNW,347,0.0,0.0,95,0.11,RA,,0.76,WeatherDisplay:10.37,2013-10-21 06:39:00,
2013-10-20 22:44:00,37.4,36.1,29.97,NNW,347,0.0,0.0,95,0.13,RA,,0.78,WeatherDisplay:10.37,2013-10-21 06:44:00,
2013-10-20 22:49:00,37.4,36.1,29.97,NNW,347,0.0,0.0,95,0.14,RA,,0.79,WeatherDisplay:10.37,2013-10-21 06:49:00,
2013-10-20 22:54:00,37.4,36.1,29.97,NNW,347,0.0,0.0,95,0.14,RA,,0.79,WeatherDisplay:10.37,2013-10-21 06:54:00,
2013-10-20 22:59:00,37.3,36.0,29.97,NNW,347,0.0,0.0,95,0.14,CLR,,0.79,WeatherDisplay:10.37,2013-10-21 06:59:00,
2013-10-20 23:04:00,37.3,36.0,29.98,NNW,347,0.0,0.0,95,0.13,CLR,,0.79,WeatherDisplay:10.37,2013-10-21 07:04:00,
2013-10-20 23:09:00,37.3,36.0,29.98,NNW,347,0.0,0.0,95,0.13,CLR,,0.79,WeatherDisplay:10.37,2013-10-21 07:09:00,
2013-10-20 23:14:00,37.2,35.9,29.98,NNW,347,0.0,0.0,95,0.12,CLR,,0.79,WeatherDisplay:10.37,2013-10-21 07:14:00,
2013-10-20 23:19:00,37.2,35.9,29.98,NNW,347,0.0,0.0,95,0.11,CLR,,0.79,WeatherDisplay:10.37,2013-10-21 07:19:00,
2013-10-20 23:24:00,37.2,35.9,29.98,NNW,347,0.0,0.0,95,0.10,CLR,,0.79,WeatherDisplay:10.37,2013-10-21 07:24:00,
2013-10-20 23:29:00,37.2,35.9,29.98,NNW,347,0.0,0.0,95,0.09,RA,,0.80,WeatherDisplay:10.37,2013-10-21 07:29:00,
2013-10-20 23:34:00,37.2,35.9,29.98,NNW,347,0.0,0.0,95,0.07,RA,,0.80,WeatherDisplay:10.37,2013-10-21 07:34:00,
2013-10-20 23:39:00,37.1,35.8,29.98,NNW,347,0.0,0.0,95,0.04,CLR,,0.80,WeatherDisplay:10.37,2013-10-21 07:39:00,
2013-10-20 23:44:00,37.1,35.8,29.98,NNW,347,0.0,0.0,95,0.02,CLR,,0.80,WeatherDisplay:10.37,2013-10-21 07:44:00,
2013-10-20 23:49:00,37.1,35.8,29.98,NNW,347,0.0,0.0,95,0.01,CLR,,0.80,WeatherDisplay:10.37,2013-10-21 07:49:00,
2013-10-20 23:54:00,37.1,35.8,29.98,NNW,347,0.0,0.0,95,0.01,CLR,,0.80,WeatherDisplay:10.37,2013-10-21 07:54:00,
2013-10-20 23:59:00,37.1,35.8,29.98,NNW,347,0.0,0.0,95,0.01,CLR,,0.80,WeatherDisplay:10.37,2013-10-21 07:59:00,